San Pedro, Belize

5:48 PM CST on September 03, 2015 (GMT -0600)
Blake St. San Pedro | | Change Station
CLOSE
Current Station
Personal Weather Station
Location: San Pedro,
Elevation: 10 ft
Nearby Weather Stations

Elev 10 ft 17.91 °N, 87.97 °W | Updated 2 seconds ago

Partly Cloudy
Partly Cloudy
85.2 °F
Feels Like 95 °F
N
7.9
Wind Variable Wind from ENE
Gusts 16.0 mph

Today
High -- | Low -- °F
--% Chance of Precip.
Yesterday
High -- | Low -- °F
Precip. -- in
5:37 AM 6:04 PM
Waning Gibbous, 65% visible
Pressure 29.83 in
Visibility 6.2 miles
Clouds Few 2200 ft
Heat Index 95 °F
Dew Point 76 °F
Humidity 75%
Rainfall 0.09 in
Snow Depth Not available.
UV 1 out of 12
Pollen Not available.
Air Quality Not available.
Flu Activity Not available.
METAR MZBZ 032300Z 09007KT 9999 FEW022 30/26 A2983 Q1010 NOSIG
Pressure 29.83 in
Visibility 6.2 miles
Clouds Few 2200 ft
Heat Index 95 °F
Dew Point 76 °F
Humidity 75%
Rainfall 0.09 in
Snow Depth Not available.
UV 1 out of 12
Pollen Not available.
Air Quality Not available.
Flu Activity Not available.
METAR MZBZ 032300Z 09007KT 9999 FEW022 30/26 A2983 Q1010 NOSIG

10-Day Weather Forecast

×

Almanac

Astronomy

Sep. 03, 2015 Rise Set
Actual Time
Civil Twilight
Nautical Twilight
Astronomical Twilight
Moon
Length of Visible Light
Length of Day
Tomorrow will be .
, % of the Moon is Illuminated

Today's Extremes

Country Highs Country Lows

Community

WunderPhotos

Upload Photos

1,852,063 photos uploaded!

WunderBlogs® & News

Nearby

Air Quality

  Air Quality AQ Index Pollutant
Not available.

Snow Depth

Station Depth Elevation

Earthquake Activity

City Distance Mag. Time & Date
Minimum magnitude displayed is 2.5.

Coastal Water Temperatures

Place Temperature

Stations

Nearby Weather Stations

Station Location Temp. Windchill Dew Point Humidity Wind Precip. Elev Updated Type